Погода в Белогорске

Погода в Белогорске : погода сейчас, прогноз погоды и архив. Всё, что Вы хотите узнать о погоде в Белогорске!

Хотите узнать прогноз погоды в Белогорске? Тогда Вам сюда: Погода в Белогорске

Поиск расширенной информации на нашем сайте:

Другие новости

Новости СМИ2

Главная страница сайта

Новости сайта

03.07.2017

Напоминаем, что на нашем специализированном сайте Метеоцентр.Азия вы можете получить высокодетализированные автоматические прогнозы погоды по пунктам России, СНГ и мира в авиационном формате (включающие направление и скорость ветра, видимость, явления погоды, количество и форму облачности, нижнюю и верхнюю границу облачности).


Погода в Белогорске - сегодня

Время (UTC), дата Ветер
(°,м/с) 
Видим.   Явления Облачность Т
(°С)
Тd
(°С)
f(%) Тe
(°С)
Pmin
(гПа)
dP
(гПа)
Po
(мм)
O2
(г/м3)
Тmin Tmax R s Состояние
почвы
18 15.04.18 150 (ЮВ) 20000 м    ясно 
-1.4 -12.4 43 -1  1008.3  -0.4  740  301           
21 15.04.18 140 (ЮВ) 20000 м    ясно 
-2.3 -10.9 52 -2  1007.4  -0.9  739  301           
00 16.04.18 210 (ЮЗ) 20000 м    3/0 верхняя 
[Ci fib]
+7.6 -9.1 29 +8  1006.6  739  290  -2.5        сухая 
03 16.04.18 230 (ЮЗ) 20000 м    5/0 верхняя 
[Ci fib]
+15.5 -11.9 14 +15  1005  -1  738  282           
06 16.04.18 240 (ЮЗ) 3{10}  20000 м    4/0 верхняя 
[Cs]
+18.5 -12.6 11 +19  1002.6  -2.1  737  279           
09 16.04.18 220 (ЮЗ) 3{10}  20000 м    3/0 верхняя 
[Ci fib]
+17.1 -11.4 13 +18  1002  -0.7  736  280           
15 16.04.18 210 (ЮЗ) 20000 м    4/3 600 м верхняя 
[Sc|Ci fib]
+6.5 -4 47 +6  1004.5  0.1  737  291           
18 16.04.18 170 (Ю) 20000 м    4/3 600 м верхняя 
[Sc|Ci fib]
+4.7 -4.4 52 +4  1003.7  -0.9  737  292           
00 17.04.18 190 (Ю) 20000 м    8/0 верхняя 
[Ci fib]
+10.8 -5.3 32 +11  1003.7  0.1  737  286  +1.8        сухая 
03 17.04.18 300 (СЗ) 20000 м    10/0 верхняя 
[Cs]
+13.3 -4.1 30 +15  1004.1  0.5  737  284           
06 17.04.18 340 (С) 20000 м    10/0 верхняя 
[Cs]
+16.9 -4.4 23 +17  1003  -0.8  737  280           
09 17.04.18 320 (СЗ) 20000 м    10/0 средняя, верхняя 
[Ac lent|Ci fib]
+14.8 -5 25 +16  1004  0.9  737  282           
15 17.04.18 340 (С) 20000 м    3/0 верхняя 
[Ci fib]
+4 -11 33 +4  1008.2  0.8  740  295           
18 17.04.18 350 (С) 20000 м    ясно 
-0.1 -11.4 42 -1  1009.2  0.6  740  299           
21 17.04.18 350 (С) 20000 м    6/0 верхняя 
[Ci fib]
-1.4 -11.2 47 -2  1010.7  1.4  741  301           
00 18.04.18 350 (С) 20000 м    8/0 верхняя 
[Ci fib]
+6.4 -10.9 28 +6  1011.3  1.2  742  293  -1.6        сухая 
03 18.04.18 320 (СЗ) 20000 м    3/0 верхняя 
[Ci fib]
+11.7 -12.5 17 +11  1010.1  -0.8  742  288           
06 18.04.18 360 (С) 20000 м    8/0 верхняя 
[Ci fib]
+13.2 -14.5 13 +14  1008.3  -1.7  740  286           
09 18.04.18 350 (С) 20000 м    6/0 верхняя 
[Ci fib]
+13.7 -14.3 13 +15  1007.5  -0.7  740  285           
15 18.04.18 140 (ЮВ) 20000 м    ясно 
+3.2 -9.1 40 +4  1008.5  -0.1  740  296           
18 18.04.18 тихо ()   20000 м    ясно 
+2 -8.7 45 +2  1008.7  0.1  740  297           
21 18.04.18 тихо ()   20000 м    8/0 средняя, верхняя 
[Ac trans|Ci fib]
+0.7 -7.3 55 +1  1009.7  0.8  741  298           
00 19.04.18 180 (Ю) 20000 м    8/0 средняя, верхняя 
[Ac trans|Ci fib]
+10.1 -7.9 27 +11  1009.3  0.4  741  289  +0.7        сухая 
03 19.04.18 210 (ЮЗ) 20000 м    3/0 верхняя 
[Ci fib]
+16.9 -10.2 15 +17  1007.3  -1.5  740  282           
09 19.04.18 320 (СЗ) 3{13}  20000 м    6/3 1000 м верхняя 
[Cu hum|Ci fib]
+21 -8.7 13 +21  1003.7  0.2  737  277           
Время (UTC), дата Ветер
(°,м/с) 
Видим.   Явления Облачность Т
(°С)
Тd
(°С)
f(%) Тe
(°С)
Pmin
(гПа)
dP
(гПа)
Po
(мм)
O2
(г/м3)
Тmin Tmax R s Состояние
почвы

Для получения пояснительной информации подведите курсор к названию столбца.

ПОГОДА в Белогорске - архив

Всё, что Вы хотите узнать о погоде в Белогорске - удобно и подробно!

Выберите нужную дату (начиная с 1 января 2015* года) и нажмите кнопку "Найти".
Будут отображены архивные сводки погоды по пункту Белогорск, начиная с указанной даты.


Отображать данные в формате CSV (для использования в таблицах Excel)


Внимание! Наш архив погоды предназначен исключительно для личного некоммерческого использования в познавательных целях. Если Вам необходимы официальные справки о состоянии погоды (для производственных, юридических, коммерческих и т.п. целей), обращайтесь в органы Росгидромета.

*Примечание: данная дата относится к архиву по метеостанциям СССР (Россия, СНГ, Балтия).
Архив по метеостанциям Зарубежной Европы и Азии (кроме Китая) хранится 10 дней, по другим регионам земного шара (Китай, Африка, Америка, Австралия, Океания) - 1 день.

Белогорск - район местоположения метеостанции


Название, широта, долгота, высота метеостанции:
Белогорск 50.9°ш. 128.5°д. 178 м над ур. моря [Российская Федерация]

Дополнительная информация

В oтличие oт бoльшинства пoгoдных сайтoв мы публикуем пoдрoбную метеoинфoрмацию в детальнoм прoфессиoнальнoм фoрмате.

Характеристики температуры и влажнoсти вoздуха измеряются на высoте 2 м в тени вдали oт зданий и деревьев.
Скoрoсть ветра измеряется на высoте 10 м (на урoвне рoста челoвека скoрoсть ветра ниже в 1.5-2 раза). Если метеoстанция нахoдится в гoрoде или в лесу, тo скoрoсть ветра занижена на 2-4 м/с пo сравнению с oткрытым местoм. Скoрoсть ветра над акватoриями крупных рек и oзёр, а также на вершинах хoлмoв на 2-5 м/с выше, чем в oбычных услoвиях.
Атмoсфернoе давление в разных тoчках местнoсти мoжет значительнo oтличаться oт давления на метеoстанции, в зависимoсти oт услoвий рельефа (при пoдъёме на 10 м давление пoнижается примернo на 1 мм рт.ст.).